Time,TemperatureF,DewpointF,PressureIn,WindDirection,WindDirectionDegrees,WindSpeedMPH,WindSpeedGustMPH,Humidity,HourlyPrecipIn,Conditions,Clouds,dailyrainin,SoftwareType,DateUTC
2013-07-04 00:00:00,95.0,0.0,29.85,North,353,5.0,12.0,22,-99.99,,,-99.99,,2013-07-04 07:00:00,
2013-07-04 00:08:00,95.0,0.0,29.85,NE,44,9.0,17.0,22,-99.99,,,-99.99,,2013-07-04 07:08:00,
2013-07-04 00:16:00,95.0,0.0,29.85,North,1,2.0,12.0,22,-99.99,,,-99.99,,2013-07-04 07:16:00,
2013-07-04 00:24:00,94.0,0.0,29.85,North,352,5.0,6.0,23,-99.99,,,-99.99,,2013-07-04 07:24:00,
2013-07-04 00:32:00,95.0,0.0,29.85,NNW,335,6.0,12.0,23,-99.99,,,-99.99,,2013-07-04 07:32:00,
2013-07-04 00:40:00,96.0,0.0,29.85,NW,316,8.0,14.0,21,-99.99,,,-99.99,,2013-07-04 07:40:00,
2013-07-04 00:48:00,94.0,0.0,29.84,NW,316,10.0,13.0,22,-99.99,,,-99.99,,2013-07-04 07:48:00,
2013-07-04 00:56:00,95.0,0.0,29.84,North,349,12.0,14.0,21,-99.99,,,-99.99,,2013-07-04 07:56:00,
2013-07-04 01:04:00,94.0,0.0,29.84,North,5,6.0,14.0,23,-99.99,,,-99.99,,2013-07-04 08:04:00,
2013-07-04 01:12:00,94.0,0.0,29.84,North,352,3.0,13.0,23,-99.99,,,-99.99,,2013-07-04 08:12:00,
2013-07-04 01:20:00,94.0,0.0,29.84,NNE,16,3.0,8.0,22,-99.99,,,-99.99,,2013-07-04 08:20:00,
2013-07-04 01:28:00,94.0,0.0,29.83,NNW,347,6.0,10.0,24,-99.99,,,-99.99,,2013-07-04 08:28:00,
2013-07-04 01:36:00,93.0,0.0,29.83,NW,319,8.0,10.0,22,-99.99,,,-99.99,,2013-07-04 08:36:00,
2013-07-04 01:44:00,94.0,0.0,29.83,North,350,8.0,10.0,23,-99.99,,,-99.99,,2013-07-04 08:44:00,
2013-07-04 01:52:00,94.0,0.0,29.83,North,350,8.0,10.0,22,-99.99,,,-99.99,,2013-07-04 08:52:00,
2013-07-04 02:00:00,93.0,0.0,29.82,North,6,2.0,9.0,22,-99.99,,,-99.99,,2013-07-04 09:00:00,
2013-07-04 02:08:00,93.0,0.0,29.82,North,355,8.0,8.0,22,-99.99,,,-99.99,,2013-07-04 09:08:00,
2013-07-04 02:16:00,93.0,0.0,29.82,North,357,3.0,9.0,22,-99.99,,,-99.99,,2013-07-04 09:16:00,
2013-07-04 02:24:00,92.0,0.0,29.82,North,357,5.0,6.0,23,-99.99,,,-99.99,,2013-07-04 09:24:00,
2013-07-04 02:32:00,92.0,0.0,29.81,North,8,2.0,6.0,23,-99.99,,,-99.99,,2013-07-04 09:32:00,
2013-07-04 02:40:00,91.0,0.0,29.81,NNW,343,2.0,6.0,23,-99.99,,,-99.99,,2013-07-04 09:40:00,
2013-07-04 02:48:00,91.0,0.0,29.81,North,4,3.0,7.0,24,-99.99,,,-99.99,,2013-07-04 09:48:00,
2013-07-04 02:56:00,92.0,0.0,29.81,NNW,332,5.0,8.0,23,-99.99,,,-99.99,,2013-07-04 09:56:00,
2013-07-04 03:04:00,92.0,0.0,29.81,North,3,2.0,8.0,23,-99.99,,,-99.99,,2013-07-04 10:04:00,
2013-07-04 03:12:00,92.0,0.0,29.80,North,356,6.0,7.0,23,-99.99,,,-99.99,,2013-07-04 10:12:00,
2013-07-04 03:20:00,91.0,0.0,29.80,ENE,58,2.0,7.0,23,-99.99,,,-99.99,,2013-07-04 10:20:00,
2013-07-04 03:28:00,91.0,0.0,29.80,NNE,32,2.0,6.0,23,-99.99,,,-99.99,,2013-07-04 10:28:00,
2013-07-04 03:36:00,90.0,0.0,29.80,NE,39,3.0,3.0,23,-99.99,,,-99.99,,2013-07-04 10:36:00,
2013-07-04 03:44:00,90.0,0.0,29.80,NE,37,3.0,5.0,23,-99.99,,,-99.99,,2013-07-04 10:44:00,
2013-07-04 03:52:00,90.0,0.0,29.80,NE,34,6.0,7.0,24,-99.99,,,-99.99,,2013-07-04 10:52:00,
2013-07-04 04:00:00,90.0,0.0,29.80,NE,36,3.0,7.0,23,-99.99,,,-99.99,,2013-07-04 11:00:00,
2013-07-04 04:08:00,90.0,0.0,29.80,NE,38,3.0,5.0,24,-99.99,,,-99.99,,2013-07-04 11:08:00,
2013-07-04 04:16:00,90.0,0.0,29.80,NE,40,5.0,5.0,24,-99.99,,,-99.99,,2013-07-04 11:16:00,
2013-07-04 04:24:00,90.0,0.0,29.80,East,84,2.0,5.0,24,-99.99,,,-99.99,,2013-07-04 11:24:00,
2013-07-04 04:32:00,90.0,0.0,29.80,ENE,60,2.0,5.0,25,-99.99,,,-99.99,,2013-07-04 11:32:00,
2013-07-04 04:40:00,89.0,0.0,29.80,ESE,119,2.0,3.0,24,-99.99,,,-99.99,,2013-07-04 11:40:00,
2013-07-04 04:48:00,89.0,0.0,29.80,ESE,112,0.0,3.0,25,-99.99,,,-99.99,,2013-07-04 11:48:00,
2013-07-04 04:56:00,89.0,0.0,29.80,WSW,241,2.0,3.0,25,-99.99,,,-99.99,,2013-07-04 11:56:00,
2013-07-04 05:04:00,90.0,0.0,29.81,SSW,202,2.0,3.0,25,-99.99,,,-99.99,,2013-07-04 12:04:00,
2013-07-04 05:12:00,90.0,0.0,29.81,SW,236,2.0,3.0,25,-99.99,,,-99.99,,2013-07-04 12:12:00,
2013-07-04 05:20:00,90.0,0.0,29.81,South,186,2.0,3.0,24,-99.99,,,-99.99,,2013-07-04 12:20:00,
2013-07-04 05:28:00,90.0,0.0,29.81,SSE,166,1.0,3.0,25,-99.99,,,-99.99,,2013-07-04 12:28:00,
2013-07-04 05:36:00,89.0,0.0,29.82,SSE,152,1.0,2.0,26,-99.99,,,-99.99,,2013-07-04 12:36:00,
2013-07-04 05:44:00,89.0,0.0,29.82,NNE,12,0.0,1.0,26,-99.99,,,-99.99,,2013-07-04 12:44:00,
2013-07-04 05:52:00,89.0,0.0,29.82,NE,46,2.0,2.0,25,-99.99,,,-99.99,,2013-07-04 12:52:00,
2013-07-04 06:00:00,88.0,0.0,29.82,North,354,3.0,3.0,25,-99.99,,,-99.99,,2013-07-04 13:00:00,
2013-07-04 06:08:00,88.0,0.0,29.82,North,354,3.0,5.0,24,-99.99,,,-99.99,,2013-07-04 13:08:00,
2013-07-04 06:16:00,88.0,0.0,29.82,NNW,340,3.0,5.0,24,-99.99,,,-99.99,,2013-07-04 13:16:00,
2013-07-04 06:24:00,88.0,0.0,29.82,NW,316,5.0,6.0,26,-99.99,,,-99.99,,2013-07-04 13:24:00,
2013-07-04 06:32:00,88.0,0.0,29.83,NW,315,5.0,6.0,24,-99.99,,,-99.99,,2013-07-04 13:32:00,
2013-07-04 06:40:00,88.0,0.0,29.83,NW,316,5.0,7.0,25,-99.99,,,-99.99,,2013-07-04 13:40:00,
2013-07-04 06:48:00,89.0,0.0,29.83,NW,320,3.0,6.0,24,-99.99,,,-99.99,,2013-07-04 13:48:00,
2013-07-04 06:56:00,89.0,0.0,29.83,NNW,348,2.0,3.0,25,-99.99,,,-99.99,,2013-07-04 13:56:00,
2013-07-04 07:04:00,90.0,0.0,29.83,North,357,2.0,2.0,24,-99.99,,,-99.99,,2013-07-04 14:04:00,
2013-07-04 07:12:00,91.0,0.0,29.83,North,352,2.0,2.0,23,-99.99,,,-99.99,,2013-07-04 14:12:00,
2013-07-04 07:20:00,91.0,0.0,29.84,NNE,21,1.0,3.0,24,-99.99,,,-99.99,,2013-07-04 14:20:00,
2013-07-04 07:28:00,92.0,0.0,29.84,NNE,24,2.0,3.0,23,-99.99,,,-99.99,,2013-07-04 14:28:00,
2013-07-04 07:36:00,92.0,0.0,29.84,NNE,28,2.0,5.0,22,-99.99,,,-99.99,,2013-07-04 14:36:00,
2013-07-04 07:44:00,93.0,0.0,29.84,NNW,345,3.0,3.0,22,-99.99,,,-99.99,,2013-07-04 14:44:00,
2013-07-04 07:52:00,94.0,0.0,29.84,North,351,3.0,5.0,21,-99.99,,,-99.99,,2013-07-04 14:52:00,
2013-07-04 08:00:00,94.0,0.0,29.84,NW,317,3.0,8.0,21,-99.99,,,-99.99,,2013-07-04 15:00:00,
2013-07-04 08:08:00,96.0,0.0,29.84,North,355,2.0,7.0,21,-99.99,,,-99.99,,2013-07-04 15:08:00,
2013-07-04 08:16:00,96.0,0.0,29.84,North,350,2.0,8.0,19,-99.99,,,-99.99,,2013-07-04 15:16:00,
2013-07-04 08:24:00,96.0,0.0,29.84,NNW,339,5.0,8.0,21,-99.99,,,-99.99,,2013-07-04 15:24:00,
2013-07-04 08:32:00,97.0,0.0,29.84,WNW,292,3.0,6.0,19,-99.99,,,-99.99,,2013-07-04 15:32:00,
2013-07-04 08:40:00,96.0,0.0,29.84,SSE,160,6.0,8.0,21,-99.99,,,-99.99,,2013-07-04 15:40:00,
2013-07-04 08:48:00,95.0,0.0,29.84,SSE,158,7.0,12.0,22,-99.99,,,-99.99,,2013-07-04 15:48:00,
2013-07-04 08:56:00,95.0,0.0,29.84,SSE,158,8.0,12.0,23,-99.99,,,-99.99,,2013-07-04 15:56:00,
2013-07-04 09:04:00,96.0,0.0,29.84,SSE,153,5.0,9.0,22,-99.99,,,-99.99,,2013-07-04 16:04:00,
2013-07-04 09:12:00,96.0,0.0,29.83,South,183,8.0,10.0,22,-99.99,,,-99.99,,2013-07-04 16:12:00,
2013-07-04 09:20:00,97.0,0.0,29.83,South,179,9.0,12.0,21,-99.99,,,-99.99,,2013-07-04 16:20:00,
2013-07-04 09:28:00,97.0,0.0,29.83,SSE,157,9.0,12.0,20,-99.99,,,-99.99,,2013-07-04 16:28:00,
2013-07-04 09:36:00,97.0,0.0,29.83,South,183,7.0,12.0,21,-99.99,,,-99.99,,2013-07-04 16:36:00,
2013-07-04 09:44:00,99.0,0.0,29.83,South,187,8.0,12.0,19,-99.99,,,-99.99,,2013-07-04 16:44:00,
2013-07-04 09:52:00,99.0,0.0,29.83,South,175,7.0,13.0,19,-99.99,,,-99.99,,2013-07-04 16:52:00,
2013-07-04 10:00:00,99.0,0.0,29.82,SSE,168,10.0,13.0,21,-99.99,,,-99.99,,2013-07-04 17:00:00,
2013-07-04 10:08:00,99.0,0.0,29.82,SSE,168,10.0,14.0,22,-99.99,,,-99.99,,2013-07-04 17:08:00,
2013-07-04 10:16:00,100.0,0.0,29.82,SSE,161,9.0,14.0,18,-99.99,,,-99.99,,2013-07-04 17:16:00,
2013-07-04 10:24:00,100.0,0.0,29.82,SSW,198,8.0,14.0,20,-99.99,,,-99.99,,2013-07-04 17:24:00,
2013-07-04 10:32:00,101.0,0.0,29.82,South,184,9.0,14.0,19,-99.99,,,-99.99,,2013-07-04 17:32:00,
2013-07-04 10:40:00,102.0,0.0,29.82,SSE,153,5.0,12.0,19,-99.99,,,-99.99,,2013-07-04 17:40:00,
2013-07-04 10:48:00,103.0,0.0,29.82,SE,133,7.0,13.0,17,-99.99,,,-99.99,,2013-07-04 17:48:00,
2013-07-04 10:56:00,104.0,0.0,29.82,SE,140,5.0,13.0,18,-99.99,,,-99.99,,2013-07-04 17:56:00,
2013-07-04 11:04:00,104.0,0.0,29.82,SSE,153,7.0,15.0,17,-99.99,,,-99.99,,2013-07-04 18:04:00,
2013-07-04 11:12:00,105.0,0.0,29.82,South,175,5.0,12.0,16,-99.99,,,-99.99,,2013-07-04 18:12:00,
2013-07-04 11:20:00,106.0,0.0,29.82,ESE,119,5.0,14.0,19,-99.99,,,-99.99,,2013-07-04 18:20:00,
2013-07-04 11:28:00,106.0,0.0,29.82,SSW,201,6.0,14.0,17,-99.99,,,-99.99,,2013-07-04 18:28:00,
2013-07-04 11:36:00,104.0,0.0,29.82,SE,127,12.0,16.0,18,-99.99,,,-99.99,,2013-07-04 18:36:00,
2013-07-04 11:44:00,106.0,0.0,29.82,SSW,194,13.0,13.0,17,-99.99,,,-99.99,,2013-07-04 18:44:00,
2013-07-04 11:52:00,104.0,0.0,29.82,ESE,112,3.0,14.0,18,-99.99,,,-99.99,,2013-07-04 18:52:00,
2013-07-04 12:00:00,107.0,0.0,29.82,South,187,14.0,17.0,17,-99.99,,,-99.99,,2013-07-04 19:00:00,
2013-07-04 12:08:00,105.0,0.0,29.82,SE,141,6.0,17.0,16,-99.99,,,-99.99,,2013-07-04 19:08:00,
2013-07-04 12:16:00,107.0,0.0,29.81,South,182,13.0,16.0,17,-99.99,,,-99.99,,2013-07-04 19:16:00,
2013-07-04 12:24:00,106.0,0.0,29.81,South,184,9.0,18.0,18,-99.99,,,-99.99,,2013-07-04 19:24:00,
2013-07-04 12:32:00,106.0,0.0,29.81,SSE,168,14.0,20.0,17,-99.99,,,-99.99,,2013-07-04 19:32:00,
2013-07-04 12:40:00,106.0,0.0,29.81,SE,126,8.0,20.0,16,-99.99,,,-99.99,,2013-07-04 19:40:00,
2013-07-04 12:48:00,106.0,0.0,29.81,SSW,197,5.0,21.0,17,-99.99,,,-99.99,,2013-07-04 19:48:00,
2013-07-04 12:56:00,108.0,0.0,29.80,SSE,154,7.0,21.0,16,-99.99,,,-99.99,,2013-07-04 19:56:00,
2013-07-04 13:04:00,107.0,0.0,29.80,SE,136,9.0,20.0,17,-99.99,,,-99.99,,2013-07-04 20:04:00,
2013-07-04 13:12:00,107.0,0.0,29.80,South,180,6.0,20.0,15,-99.99,,,-99.99,,2013-07-04 20:12:00,
2013-07-04 13:20:00,108.0,0.0,29.79,South,176,15.0,23.0,15,-99.99,,,-99.99,,2013-07-04 20:20:00,
2013-07-04 13:28:00,109.0,0.0,29.79,SE,128,5.0,17.0,15,-99.99,,,-99.99,,2013-07-04 20:28:00,
2013-07-04 13:36:00,106.0,0.0,29.78,SSW,204,7.0,20.0,17,-99.99,,,-99.99,,2013-07-04 20:36:00,
2013-07-04 13:44:00,108.0,0.0,29.78,SSW,205,17.0,25.0,17,-99.99,,,-99.99,,2013-07-04 20:44:00,
2013-07-04 13:52:00,105.0,0.0,29.78,West,259,1.0,26.0,17,-99.99,,,-99.99,,2013-07-04 20:52:00,
2013-07-04 14:04:00,108.0,0.0,29.77,SE,145,7.0,20.0,15,-99.99,,,-99.99,,2013-07-04 21:04:00,
2013-07-04 14:12:00,110.0,0.0,29.76,SE,146,12.0,22.0,16,-99.99,,,-99.99,,2013-07-04 21:12:00,
2013-07-04 14:20:00,110.0,0.0,29.76,SSE,164,23.0,25.0,16,-99.99,,,-99.99,,2013-07-04 21:20:00,
2013-07-04 14:28:00,109.0,0.0,29.76,SSW,200,20.0,26.0,16,-99.99,,,-99.99,,2013-07-04 21:28:00,
2013-07-04 14:36:00,107.0,0.0,29.75,South,170,9.0,23.0,15,-99.99,,,-99.99,,2013-07-04 21:36:00,
2013-07-04 14:44:00,108.0,0.0,29.75,South,173,9.0,26.0,17,-99.99,,,-99.99,,2013-07-04 21:44:00,
2013-07-04 14:52:00,108.0,0.0,29.75,SW,219,13.0,25.0,16,-99.99,,,-99.99,,2013-07-04 21:52:00,
2013-07-04 15:00:00,109.0,0.0,29.73,SSE,158,16.0,25.0,16,-99.99,,,-99.99,,2013-07-04 22:00:00,
2013-07-04 15:08:00,111.0,0.0,29.74,South,171,7.0,25.0,17,-99.99,,,-99.99,,2013-07-04 22:08:00,
2013-07-04 15:16:00,109.0,0.0,29.73,SSW,198,21.0,33.0,17,-99.99,,,-99.99,,2013-07-04 22:16:00,
2013-07-04 15:24:00,109.0,0.0,29.74,SW,219,22.0,31.0,15,-99.99,,,-99.99,,2013-07-04 22:24:00,
2013-07-04 15:32:00,109.0,0.0,29.72,SSE,163,14.0,31.0,16,-99.99,,,-99.99,,2013-07-04 22:32:00,
2013-07-04 15:40:00,108.0,0.0,29.73,SW,219,21.0,26.0,16,-99.99,,,-99.99,,2013-07-04 22:40:00,
2013-07-04 15:48:00,107.0,0.0,29.72,SSW,206,18.0,25.0,16,-99.99,,,-99.99,,2013-07-04 22:48:00,
2013-07-04 15:56:00,106.0,0.0,29.72,SSW,193,29.0,32.0,16,-99.99,,,-99.99,,2013-07-04 22:56:00,
2013-07-04 16:04:00,107.0,0.0,29.72,SW,234,20.0,32.0,16,-99.99,,,-99.99,,2013-07-04 23:04:00,
2013-07-04 16:12:00,106.0,0.0,29.73,SW,235,14.0,23.0,16,-99.99,,,-99.99,,2013-07-04 23:12:00,
2013-07-04 16:20:00,107.0,0.0,29.72,WSW,257,20.0,21.0,17,-99.99,,,-99.99,,2013-07-04 23:20:00,
2013-07-04 16:28:00,107.0,0.0,29.73,West,271,15.0,22.0,17,-99.99,,,-99.99,,2013-07-04 23:28:00,
2013-07-04 16:36:00,106.0,0.0,29.72,West,279,15.0,23.0,18,-99.99,,,-99.99,,2013-07-04 23:36:00,
2013-07-04 16:44:00,107.0,0.0,29.73,NW,307,12.0,23.0,17,-99.99,,,-99.99,,2013-07-04 23:44:00,
2013-07-04 16:52:00,106.0,0.0,29.72,NW,319,14.0,25.0,18,-99.99,,,-99.99,,2013-07-04 23:52:00,
2013-07-04 17:00:00,104.0,0.0,29.73,NW,311,15.0,30.0,18,-99.99,,,-99.99,,2013-07-05 00:00:00,
2013-07-04 17:08:00,103.0,0.0,29.72,NNW,347,18.0,29.0,19,-99.99,,,-99.99,,2013-07-05 00:08:00,
2013-07-04 17:16:00,102.0,0.0,29.73,NNW,347,17.0,30.0,20,-99.99,,,-99.99,,2013-07-05 00:16:00,
2013-07-04 17:24:00,102.0,0.0,29.73,NW,309,17.0,30.0,19,-99.99,,,-99.99,,2013-07-05 00:24:00,
2013-07-04 17:32:00,102.0,0.0,29.73,North,1,20.0,30.0,19,-99.99,,,-99.99,,2013-07-05 00:32:00,
2013-07-04 17:40:00,101.0,0.0,29.72,North,356,15.0,30.0,21,-99.99,,,-99.99,,2013-07-05 00:40:00,
2013-07-04 17:48:00,102.0,0.0,29.72,North,354,10.0,29.0,19,-99.99,,,-99.99,,2013-07-05 00:48:00,
2013-07-04 17:56:00,102.0,0.0,29.73,NNW,335,12.0,28.0,20,-99.99,,,-99.99,,2013-07-05 00:56:00,
2013-07-04 18:04:00,103.0,0.0,29.73,NNW,331,10.0,24.0,19,-99.99,,,-99.99,,2013-07-05 01:04:00,
2013-07-04 18:12:00,102.0,0.0,29.73,NNW,343,24.0,25.0,18,-99.99,,,-99.99,,2013-07-05 01:12:00,
2013-07-04 18:20:00,103.0,0.0,29.74,NNW,343,21.0,28.0,20,-99.99,,,-99.99,,2013-07-05 01:20:00,
2013-07-04 18:28:00,103.0,0.0,29.73,North,350,9.0,24.0,18,-99.99,,,-99.99,,2013-07-05 01:28:00,
2013-07-04 18:32:00,102.0,0.0,29.74,North,352,12.0,24.0,19,-99.99,,,-99.99,,2013-07-05 01:32:00,
2013-07-04 18:40:00,103.0,0.0,29.74,North,0,14.0,21.0,20,-99.99,,,-99.99,,2013-07-05 01:40:00,
2013-07-04 18:48:00,103.0,0.0,29.74,North,356,9.0,18.0,19,-99.99,,,-99.99,,2013-07-05 01:48:00,
2013-07-04 18:56:00,102.0,0.0,29.74,North,351,15.0,18.0,19,-99.99,,,-99.99,,2013-07-05 01:56:00,
2013-07-04 19:04:00,103.0,0.0,29.74,NW,323,10.0,18.0,20,-99.99,,,-99.99,,2013-07-05 02:04:00,
2013-07-04 19:12:00,102.0,0.0,29.74,North,352,10.0,15.0,19,-99.99,,,-99.99,,2013-07-05 02:12:00,
2013-07-04 19:20:00,102.0,0.0,29.74,NNW,344,9.0,13.0,21,-99.99,,,-99.99,,2013-07-05 02:20:00,
2013-07-04 19:28:00,101.0,0.0,29.74,NW,313,9.0,12.0,19,-99.99,,,-99.99,,2013-07-05 02:28:00,
2013-07-04 19:36:00,101.0,0.0,29.74,North,350,2.0,9.0,22,-99.99,,,-99.99,,2013-07-05 02:36:00,
2013-07-04 19:44:00,101.0,0.0,29.74,NNW,342,3.0,7.0,20,-99.99,,,-99.99,,2013-07-05 02:44:00,
2013-07-04 19:52:00,100.0,0.0,29.74,NNW,328,6.0,6.0,20,-99.99,,,-99.99,,2013-07-05 02:52:00,
2013-07-04 20:01:00,100.0,0.0,29.75,NNW,340,5.0,8.0,20,-99.99,,,-99.99,,2013-07-05 03:01:00,
2013-07-04 20:08:00,99.0,0.0,29.75,NNW,344,6.0,8.0,20,-99.99,,,-99.99,,2013-07-05 03:08:00,
2013-07-04 20:16:00,99.0,0.0,29.75,NW,310,3.0,8.0,21,-99.99,,,-99.99,,2013-07-05 03:16:00,
2013-07-04 20:24:00,99.0,0.0,29.75,WNW,285,3.0,6.0,20,-99.99,,,-99.99,,2013-07-05 03:24:00,
2013-07-04 20:32:00,98.0,0.0,29.75,NW,315,1.0,6.0,21,-99.99,,,-99.99,,2013-07-05 03:32:00,
2013-07-04 20:40:00,98.0,0.0,29.75,West,276,5.0,5.0,21,-99.99,,,-99.99,,2013-07-05 03:40:00,
2013-07-04 20:48:00,98.0,0.0,29.75,West,272,5.0,6.0,21,-99.99,,,-99.99,,2013-07-05 03:48:00,
2013-07-04 20:56:00,97.0,0.0,29.76,West,276,7.0,9.0,21,-99.99,,,-99.99,,2013-07-05 03:56:00,
2013-07-04 21:04:00,96.0,0.0,29.76,West,272,8.0,8.0,23,-99.99,,,-99.99,,2013-07-05 04:04:00,
2013-07-04 21:12:00,96.0,0.0,29.76,WSW,253,8.0,9.0,23,-99.99,,,-99.99,,2013-07-05 04:12:00,
2013-07-04 21:20:00,96.0,0.0,29.76,WSW,257,6.0,10.0,23,-99.99,,,-99.99,,2013-07-05 04:20:00,
2013-07-04 21:24:00,95.0,0.0,29.76,West,260,7.0,10.0,23,-99.99,,,-99.99,,2013-07-05 04:24:00,
2013-07-04 21:28:00,95.0,0.0,29.77,WSW,237,7.0,9.0,24,-99.99,,,-99.99,,2013-07-05 04:28:00,
2013-07-04 21:32:00,94.0,0.0,29.77,WSW,257,10.0,10.0,23,-99.99,,,-99.99,,2013-07-05 04:32:00,
2013-07-04 21:40:00,94.0,0.0,29.77,West,274,6.0,12.0,23,-99.99,,,-99.99,,2013-07-05 04:40:00,
2013-07-04 21:48:00,94.0,0.0,29.77,WSW,247,6.0,9.0,23,-99.99,,,-99.99,,2013-07-05 04:48:00,
2013-07-04 21:56:00,94.0,0.0,29.77,West,262,6.0,8.0,23,-99.99,,,-99.99,,2013-07-05 04:56:00,
2013-07-04 22:04:00,94.0,0.0,29.77,West,274,6.0,9.0,24,-99.99,,,-99.99,,2013-07-05 05:04:00,
2013-07-04 22:12:00,94.0,0.0,29.77,West,272,10.0,12.0,23,-99.99,,,-99.99,,2013-07-05 05:12:00,
2013-07-04 22:20:00,93.0,0.0,29.78,WSW,248,8.0,13.0,24,-99.99,,,-99.99,,2013-07-05 05:20:00,
2013-07-04 22:28:00,93.0,0.0,29.77,West,267,6.0,9.0,25,-99.99,,,-99.99,,2013-07-05 05:28:00,
2013-07-04 22:36:00,93.0,0.0,29.78,West,276,7.0,9.0,24,-99.99,,,-99.99,,2013-07-05 05:36:00,
2013-07-04 22:44:00,93.0,0.0,29.78,West,278,5.0,9.0,24,-99.99,,,-99.99,,2013-07-05 05:44:00,
2013-07-04 22:52:00,92.0,0.0,29.78,WNW,287,6.0,7.0,24,-99.99,,,-99.99,,2013-07-05 05:52:00,
2013-07-04 23:00:00,93.0,0.0,29.78,WNW,289,2.0,7.0,24,-99.99,,,-99.99,,2013-07-05 06:00:00,
2013-07-04 23:08:00,92.0,0.0,29.78,WNW,301,3.0,5.0,23,-99.99,,,-99.99,,2013-07-05 06:08:00,
2013-07-04 23:16:00,93.0,0.0,29.78,North,352,1.0,5.0,24,-99.99,,,-99.99,,2013-07-05 06:16:00,
2013-07-04 23:24:00,92.0,0.0,29.78,NNE,16,1.0,3.0,24,-99.99,,,-99.99,,2013-07-05 06:24:00,
2013-07-04 23:32:00,92.0,0.0,29.78,NE,49,2.0,3.0,25,-99.99,,,-99.99,,2013-07-05 06:32:00,
2013-07-04 23:40:00,92.0,0.0,29.78,NNW,343,1.0,3.0,25,-99.99,,,-99.99,,2013-07-05 06:40:00,
2013-07-04 23:48:00,92.0,0.0,29.78,North,355,2.0,2.0,24,-99.99,,,-99.99,,2013-07-05 06:48:00,
2013-07-04 23:56:00,92.0,0.0,29.78,WNW,299,2.0,3.0,25,-99.99,,,-99.99,,2013-07-05 06:56:00,